Flag for Equatorial Guinea Weather past 2 weeks in Bata, Equatorial Guinea

81 °F

Passing clouds.

Feels Like: 86 °F
Forecast: 77 / 82 °F
Wind: 5 mph from South

Location: Libreville Airport

Current Time: Oct 10, 2015 at 8:55:56 PM

Latest Report: Oct 10, 2015 at 8:00 PM

Visibility: N/A

Pressure: 29.92 "Hg

Humidity: 84%

Dew point: 75 °F

Location of BataLocation

Historic Weather in Bata — Graph


Bata temperature yesterday

Maximum temperature yesterday: 82 °F (at 2:00 PM)
Minimum temperature yesterday: 75 °F (at 4:52 AM)
Average temperature yesterday: 77 °F

Past Weeks' High & Low Weather Summary

High84 °F (Sep 26, 11:00 AM)100% (Oct 1, 7:00 AM)30.01 "Hg (Oct 1, 7:00 AM)
Low73 °F (Oct 10, 1:00 AM)70% (Sep 26, 11:00 AM)29.77 "Hg (Oct 2, 4:00 PM)
Average80 °F85%29.90 "Hg
* Reported Sep 25 7:00 PM — Oct 10 7:00 PM, Bata, Weather by CustomWeather, © 2015

Note: Actual official high and low records may vary slightly from our data, if they occured in-between our weather recording intervals... More about our weather records


Bata weather history for previous 24 hours

Time TempWeatherWind HumidityBarometerVisibility
7:00 PM
Sat, Oct 10
79 °FPassing clouds.6 mph84%29.89 "HgN/A
6:00 PM81 °FScattered clouds.7 mph84%29.86 "HgN/A
5:00 PM81 °FScattered clouds.7 mph79%29.86 "HgN/A
4:00 PM82 °FScattered clouds.7 mph79%29.86 "HgN/A
3:00 PM84 °FScattered clouds.7 mph74%29.89 "HgN/A
2:00 PM82 °FBroken clouds.7 mph79%29.92 "HgN/A
1:00 PM82 °FBroken clouds.5 mph70%29.95 "HgN/A
12:00 PM82 °FScattered clouds.6 mph74%29.95 "HgN/A
11:00 AM82 °FScattered clouds.5 mph79%29.98 "HgN/A
10:00 AM79 °FScattered clouds.2 mph84%30.01 "Hg5 mi
9:00 AM77 °FScattered clouds.3 mph94%30.01 "Hg5 mi
8:00 AM75 °FScattered clouds.3 mph100%29.98 "Hg5 mi
6:00 AM73 °FPassing clouds.2 mph100%29.92 "Hg3 mi
5:57 AM73 °FPassing clouds.2 mph100%29.92 "Hg3 mi
5:00 AM73 °FLight rain. Low clouds.2 mph100%29.92 "Hg5 mi
4:00 AM73 °FMostly cloudy.7 mph100%29.92 "Hg5 mi
3:00 AM73 °FLight rain. Passing clouds.7 mph100%29.92 "Hg4 mi
2:00 AM73 °FPassing clouds.6 mph100%29.92 "HgN/A
1:00 AM73 °FPartly cloudy.6 mph100%29.92 "HgN/A
12:00 AM75 °FPartly cloudy.6 mph94%29.92 "HgN/A
11:00 PM
Fri, Oct 9
79 °FPassing clouds.5 mph84%29.89 "HgN/A
10:00 PM77 °FPassing clouds.8 mph89%29.89 "HgN/A
9:00 PM77 °FPassing clouds.6 mph89%29.89 "HgN/A
8:53 PM77 °FPassing clouds.6 mph89%29.89 "HgN/A
8:00 PM75 °FThunderstorms. Passing clouds.8 mph94%29.89 "Hg5 mi
Weather by CustomWeather, © 2015

See weather overviewHow to use our weather pages